Sharm El Sheikhintl, Egypt

1:28 AM EET on July 27, 2016 (GMT +0200)
Sharm El Sheikh International

Weather History for HESH - May, 2013

Change the Weather History Date:

Friday, May 10, 2013

  Actual Average Record
Temperature  
Mean Temperature 86 °F -  
Max Temperature 98 °F - - ()
Min Temperature 75 °F - - ()
Cooling Degree Days 22    
Growing Degree Days 36 (Base 50)    
Moisture  
Dew Point 50 °F    
Average Humidity 32    
Maximum Humidity 65    
Minimum Humidity 8    
Precipitation  
Precipitation 0.00 in - - ()
Sea Level Pressure  
Sea Level Pressure 29.78 in    
Wind  
Wind Speed 9 mph ()    
Max Wind Speed 16 mph    
Max Gust Speed -    
T = Trace of Precipitation, MM = Missing Value Source: Averaged Metar Reports

Daily Weather History Graph

Daily Weather History Graph

Search for Another Location

Airport or City:

Trip Planner

Search our weather history database for the weather conditions in past years. The results will help you decide how hot, cold, wet, or windy it might be!

Date:

Astronomy

May. 10, 2013 Rise Set
Actual Time 4:55 AM EET 6:22 PM EET
Civil Twilight 4:30 AM EET 6:47 PM EET
Nautical Twilight 4:00 AM EET 7:17 PM EET
Astronomical Twilight 3:29 AM EET 7:49 PM EET
Moon 5:05 AM EET (5/10) 6:51 PM EET (5/10)
Length of Visible Light 14h 16m
Length of Day
13h 26m
New Moon, 0% of the Moon is Illuminated
May 10
New Moon
May 18
First Quarter
May 25
Full
May 31
Last Quarter
Jun 8
New

Hourly Weather History & Observations

Time (EET) Temp. Heat Index Dew Point Humidity Pressure Visibility Wind Dir Wind Speed Gust Speed Precip Events Conditions
12:00 AM 77.0 °F - 64.4 °F 65% 29.74 in - North 9.2 mph - N/A   Clear
1:00 AM 78.8 °F - 53.6 °F 42% 29.74 in - NNE 10.4 mph - N/A   Clear
2:00 AM 78.8 °F - 55.4 °F 44% 29.74 in - NNE 9.2 mph - N/A   Clear
3:00 AM 75.2 °F - 57.2 °F 53% 29.74 in - North 5.8 mph - N/A   Clear
4:00 AM 77.0 °F - 55.4 °F 47% 29.74 in - North 11.5 mph - N/A   Clear
5:00 AM 77.0 °F - 55.4 °F 47% 29.77 in - North 11.5 mph - N/A   Clear
6:00 AM 78.8 °F - 59.0 °F 51% 29.77 in - North 9.2 mph - N/A   Clear
7:00 AM 82.4 °F 82.5 °F 59.0 °F 45% 29.80 in - North 12.7 mph - N/A   Clear
8:00 AM 84.2 °F 83.0 °F 55.4 °F 37% 29.80 in - NNE 13.8 mph - N/A   Clear
9:00 AM 87.8 °F 85.7 °F 53.6 °F 31% 29.83 in - NNE 9.2 mph - N/A   Clear
10:00 AM 91.4 °F - 50.0 °F 24% 29.83 in - East 3.5 mph - N/A   Clear
11:00 AM 91.4 °F - 48.2 °F 23% 29.83 in - SSE 5.8 mph - N/A   Clear
12:00 PM 93.2 °F 91.9 °F 57.2 °F 30% 29.83 in - SE 5.8 mph - N/A   Clear
1:00 PM 95.0 °F - 50.0 °F 22% 29.80 in - SSE 13.8 mph - N/A   Clear
2:00 PM 98.6 °F - 28.4 °F 8% 29.74 in - SW 10.4 mph - N/A   Clear
4:00 PM 93.2 °F 90.8 °F 53.6 °F 26% 29.74 in - South 16.1 mph - N/A   Clear
5:00 PM 91.4 °F 89.1 °F 53.6 °F 28% 29.74 in - South 16.1 mph - N/A   Clear
6:00 PM 87.8 °F - 46.4 °F 24% 29.74 in - SSW 16.1 mph - N/A   Clear
7:00 PM 86.0 °F - 44.6 °F 23% 29.77 in - SSW 10.4 mph - N/A   Clear
8:00 PM 86.0 °F - 37.4 °F 18% 29.80 in - SW 9.2 mph - N/A   Clear
9:00 PM 86.0 °F - 35.6 °F 17% 29.80 in - SW 8.1 mph - N/A   Clear
10:00 PM 86.0 °F - 35.6 °F 17% 29.83 in - SW 9.2 mph - N/A   Clear
11:00 PM 86.0 °F - 37.4 °F 18% 29.83 in - SW 9.2 mph - N/A   Clear